| time (UTC) | temp C | wind direction | speed KPH | gust KPH | rain 1hr cm | rain 24hr cm | rain mn cm | humidity % | barometer mb |
| 20260508151231 | 17 | 290 | 3.2 | 3.2 | 0.00 | 0.00 | 0.00 | 47 | 1018.7 |
| 20260508150728 | 16 | 6 | 6.4 | 6.4 | 0.00 | 0.00 | 0.00 | 43 | 1018.6 |
| 20260508150225 | 16 | 85 | 3.2 | 6.4 | 0.00 | 0.00 | 0.00 | 45 | 1018.6 |
| 20260508145720 | 16 | 76 | 0.0 | 6.4 | 0.00 | 0.00 | 0.00 | 45 | 1018.7 |
| 20260508145216 | 16 | 43 | 3.2 | 6.4 | 0.00 | 0.00 | 0.00 | 45 | 1018.9 |
| 20260508144714 | 16 | 27 | 1.6 | 3.2 | 0.00 | 0.00 | 0.00 | 49 | 1018.9 |
| 20260508144212 | 15 | 99 | 3.2 | 14.5 | 0.00 | 0.00 | 0.00 | 47 | 1019.0 |
| 20260508143709 | 15 | 17 | 3.2 | 4.8 | 0.00 | 0.00 | 0.00 | 49 | 1018.8 |
| 20260508143206 | 15 | 101 | 4.8 | 6.4 | 0.00 | 0.00 | 0.00 | 53 | 1018.9 |
| 20260508142702 | 14 | 44 | 3.2 | 6.4 | 0.00 | 0.00 | 0.00 | 56 | 1018.8 |
| 20260508142159 | 14 | 140 | 0.0 | 3.2 | 0.00 | 0.00 | 0.00 | 57 | 1018.8 |
| 20260508141655 | 13 | 108 | 3.2 | 6.4 | 0.00 | 0.00 | 0.00 | 61 | 1018.9 |
| 20260508141153 | 13 | 128 | 3.2 | 6.4 | 0.00 | 0.00 | 0.00 | 61 | 1019.1 |
| 20260508140651 | 13 | 140 | 3.2 | 4.8 | 0.00 | 0.00 | 0.00 | 66 | 1019.0 |
| 20260508140147 | 13 | 135 | 0.0 | 0.0 | 0.00 | 0.00 | 0.00 | 67 | 1019.1 |
| 20260508135643 | 12 | 174 | 3.2 | 4.8 | 0.00 | 0.00 | 0.00 | 65 | 1019.3 |
| 20260508135139 | 12 | 159 | 3.2 | 4.8 | 0.00 | 0.00 | 0.00 | 69 | 1019.1 |
| 20260508134636 | 12 | 122 | 3.2 | 4.8 | 0.00 | 0.00 | 0.00 | 67 | 1019.2 |
| 20260508134133 | 11 | 138 | 3.2 | 3.2 | 0.00 | 0.00 | 0.00 | 67 | 1019.1 |
| 20260508133629 | 11 | 173 | 1.6 | 3.2 | 0.00 | 0.00 | 0.00 | 71 | 1019.2 |
| 20260508133127 | 11 | 134 | 3.2 | 3.2 | 0.00 | 0.00 | 0.00 | 71 | 1019.1 |
| 20260508132625 | 11 | 13 | 3.2 | 4.8 | 0.00 | 0.00 | 0.00 | 70 | 1018.9 |
| 20260508132121 | 10 | 330 | 3.2 | 4.8 | 0.00 | 0.00 | 0.00 | 71 | 1019.0 |
| 20260508131617 | 10 | 137 | 0.0 | 4.8 | 0.00 | 0.00 | 0.00 | 73 | 1019.1 |
| 20260508131114 | 10 | 68 | 0.0 | 3.2 | 0.00 | 0.00 | 0.00 | 74 | 1019.2 |
| 20260508130611 | 9 | 357 | 0.0 | 1.6 | 0.00 | 0.00 | 0.00 | 78 | 1019.4 |
| 20260508130108 | 9 | 324 | 1.6 | 4.8 | 0.00 | 0.00 | 0.00 | 79 | 1019.3 |
| 20260508125607 | 9 | 32 | 3.2 | 4.8 | 0.00 | 0.00 | 0.00 | 82 | 1019.4 |
| 20260508125106 | 8 | 16 | 1.6 | 3.2 | 0.00 | 0.00 | 0.00 | 80 | 1019.7 |
| 20260508124604 | 8 | 348 | 0.0 | 4.8 | 0.00 | 0.00 | 0.00 | 78 | 1019.4 |
| 20260508124100 | 8 | 23 | 1.6 | 3.2 | 0.00 | 0.00 | 0.00 | 79 | 1019.3 |
| 20260508123559 | 8 | 34 | 1.6 | 4.8 | 0.00 | 0.00 | 0.00 | 80 | 1019.2 |
| 20260508123055 | 7 | 44 | 0.0 | 3.2 | 0.00 | 0.00 | 0.00 | 83 | 1019.4 |
| 20260508122552 | 7 | 56 | 0.0 | 3.2 | 0.00 | 0.00 | 0.00 | 83 | 1019.4 |
| 20260508122049 | 6 | 59 | 0.0 | 3.2 | 0.00 | 0.00 | 0.00 | 88 | 1019.3 |
| 20260508121548 | 6 | 88 | 0.0 | 1.6 | 0.00 | 0.00 | 0.00 | 91 | 1019.3 |
| 20260508121045 | 5 | 74 | 0.0 | 0.0 | 0.00 | 0.00 | 0.00 | 93 | 1019.3 |
| 20260508120542 | 5 | 91 | 1.6 | 1.6 | 0.00 | 0.00 | 0.00 | 93 | 1019.1 |
| 20260508120041 | 4 | 93 | 1.6 | 1.6 | 0.00 | 0.00 | 0.00 | 93 | 1019.0 |
| 20260508115537 | 4 | 87 | 0.0 | 3.2 | 0.00 | 0.00 | 0.00 | 94 | 1019.1 |
| 20260508115034 | 3 | 93 | 1.6 | 3.2 | 0.00 | 0.00 | 0.00 | 95 | 1019.2 |
| 20260508114531 | 3 | 92 | 3.2 | 3.2 | 0.00 | 0.00 | 0.00 | 94 | 1019.2 |
| 20260508114027 | 3 | 63 | 3.2 | 4.8 | 0.00 | 0.00 | 0.00 | 94 | 1019.2 |
| 20260508113525 | 3 | 76 | 1.6 | 3.2 | 0.00 | 0.00 | 0.00 | 95 | 1019.4 |
| 20260508113023 | 2 | 74 | 1.6 | 4.8 | 0.00 | 0.00 | 0.00 | 96 | 1019.1 |
| 20260508112519 | 2 | 89 | 3.2 | 4.8 | 0.00 | 0.00 | 0.00 | 96 | 1019.0 |
| 20260508112016 | 2 | 71 | 1.6 | 3.2 | 0.00 | 0.00 | 0.00 | 97 | 1019.2 |
| 20260508111513 | 2 | 83 | 3.2 | 3.2 | 0.00 | 0.00 | 0.00 | 97 | 1019.2 |
| 20260508111010 | 2 | 73 | 0.0 | 0.0 | 0.00 | 0.00 | 0.00 | 98 | 1019.1 |
| 20260508110508 | 1 | 72 | 0.0 | 0.0 | 0.00 | 0.00 | 0.00 | 98 | 1019.0 |
| 20260508110003 | 1 | 71 | 0.0 | 0.0 | 0.00 | 0.00 | 0.00 | 99 | 1018.9 |
| 20260508105458 | 1 | 74 | 0.0 | 3.2 | 0.00 | 0.00 | 0.00 | 98 | 1019.0 |
| 20260508104956 | 1 | 82 | 1.6 | 3.2 | 0.00 | 0.00 | 0.00 | 98 | 1018.7 |
| 20260508104453 | 1 | 84 | 3.2 | 3.2 | 0.00 | 0.00 | 0.00 | 98 | 1018.7 |
| 20260508103950 | 1 | 76 | 3.2 | 3.2 | 0.00 | 0.00 | 0.00 | 99 | 1018.7 |
| 20260508103447 | 1 | 93 | 3.2 | 3.2 | 0.00 | 0.00 | 0.00 | 99 | 1018.8 |
| 20260508102943 | 1 | 76 | 3.2 | 4.8 | 0.00 | 0.00 | 0.00 | 99 | 1018.6 |
| 20260508102442 | 1 | 88 | 1.6 | 3.2 | 0.00 | 0.00 | 0.00 | 99 | 1018.7 |
| 20260508101939 | 1 | 81 | 3.2 | 3.2 | 0.00 | 0.00 | 0.00 | 99 | 1018.8 |
| 20260508101436 | 1 | 80 | 3.2 | 3.2 | 0.00 | 0.00 | 0.00 | 99 | 1018.5 |
| 20260508100933 | 1 | 84 | 3.2 | 3.2 | 0.00 | 0.00 | 0.00 | 99 | 1018.5 |
| 20260508100432 | 1 | 89 | 3.2 | 3.2 | 0.00 | 0.00 | 0.00 | 98 | 1018.5 |
| 20260508095928 | 1 | 87 | 3.2 | 3.2 | 0.00 | 0.00 | 0.00 | 98 | 1018.6 |
| 20260508095426 | 1 | 84 | 3.2 | 4.8 | 0.00 | 0.00 | 0.00 | 99 | 1018.4 |
| 20260508094922 | 1 | 85 | 3.2 | 3.2 | 0.00 | 0.00 | 0.00 | 99 | 1018.6 |
| 20260508094419 | 1 | 90 | 3.2 | 4.8 | 0.00 | 0.00 | 0.00 | 99 | 1018.5 |
| 20260508093916 | 1 | 88 | 3.2 | 4.8 | 0.00 | 0.00 | 0.00 | 99 | 1018.4 |
| 20260508093414 | 1 | 84 | 3.2 | 4.8 | 0.00 | 0.00 | 0.00 | 99 | 1018.5 |
| 20260508092911 | 1 | 75 | 4.8 | 4.8 | 0.00 | 0.00 | 0.00 | 99 | 1018.5 |
| 20260508092409 | 1 | 78 | 1.6 | 3.2 | 0.00 | 0.00 | 0.00 | 99 | 1018.5 |
| 20260508091907 | 1 | 75 | 1.6 | 1.6 | 0.00 | 0.00 | 0.00 | 99 | 1018.4 |
| 20260508091403 | 1 | 88 | 0.0 | 0.0 | 0.00 | 0.00 | 0.00 | 99 | 1018.4 |
| 20260508090901 | 1 | 88 | 0.0 | 0.0 | 0.00 | 0.00 | 0.00 | 98 | 1018.2 |
| 20260508090359 | 1 | 88 | 0.0 | 0.0 | 0.00 | 0.00 | 0.00 | 99 | 1018.5 |
| 20260508085854 | 1 | 89 | 0.0 | 0.0 | 0.00 | 0.00 | 0.00 | 99 | 1018.5 |
| 20260508085351 | 1 | 88 | 1.6 | 1.6 | 0.00 | 0.00 | 0.00 | 98 | 1018.4 |
| 20260508084848 | 1 | 86 | 1.6 | 3.2 | 0.00 | 0.00 | 0.00 | 98 | 1018.4 |
| 20260508084345 | 1 | 76 | 0.0 | 0.0 | 0.00 | 0.00 | 0.00 | 98 | 1018.1 |
| 20260508083843 | 1 | 73 | 0.0 | 0.0 | 0.00 | 0.00 | 0.00 | 98 | 1018.0 |
| 20260508083340 | 1 | 82 | 0.0 | 0.0 | 0.00 | 0.00 | 0.00 | 98 | 1018.2 |
| 20260508082839 | 1 | 84 | 0.0 | 0.0 | 0.00 | 0.00 | 0.00 | 98 | 1018.1 |
| 20260508082337 | 1 | 78 | 1.6 | 1.6 | 0.00 | 0.00 | 0.00 | 98 | 1018.1 |
| 20260508081834 | 1 | 78 | 1.6 | 1.6 | 0.00 | 0.00 | 0.00 | 98 | 1018.2 |
| 20260508081331 | 1 | 81 | 0.0 | 1.6 | 0.00 | 0.00 | 0.00 | 98 | 1018.2 |
| 20260508080828 | 1 | 89 | 1.6 | 3.2 | 0.00 | 0.00 | 0.00 | 98 | 1018.4 |
| 20260508080326 | 1 | 81 | 1.6 | 3.2 | 0.00 | 0.00 | 0.00 | 98 | 1018.2 |
| 20260508075822 | 2 | 73 | 1.6 | 3.2 | 0.00 | 0.00 | 0.00 | 98 | 1018.1 |
| 20260508075319 | 2 | 88 | 3.2 | 3.2 | 0.00 | 0.00 | 0.00 | 98 | 1018.2 |
| 20260508074817 | 2 | 92 | 1.6 | 3.2 | 0.00 | 0.00 | 0.00 | 98 | 1018.1 |
| 20260508074314 | 2 | 89 | 1.6 | 1.6 | 0.00 | 0.00 | 0.00 | 98 | 1018.1 |
| 20260508073811 | 2 | 83 | 0.0 | 3.2 | 0.00 | 0.00 | 0.00 | 98 | 1018.0 |
| 20260508073309 | 2 | 87 | 1.6 | 3.2 | 0.00 | 0.00 | 0.00 | 98 | 1017.9 |
| 20260508072805 | 2 | 113 | 1.6 | 1.6 | 0.00 | 0.00 | 0.00 | 98 | 1018.1 |
| 20260508072306 | 2 | 86 | 1.6 | 1.6 | 0.00 | 0.00 | 0.00 | 98 | 1018.1 |
| 20260508071759 | 2 | 92 | 3.2 | 3.2 | 0.00 | 0.00 | 0.00 | 98 | 1018.0 |
| 20260508071258 | 2 | 84 | 3.2 | 3.2 | 0.00 | 0.00 | 0.00 | 98 | 1018.0 |
| 20260508070754 | 2 | 73 | 0.0 | 1.6 | 0.00 | 0.00 | 0.00 | 98 | 1017.9 |
| 20260508070253 | 2 | 75 | 1.6 | 3.2 | 0.00 | 0.00 | 0.00 | 98 | 1018.1 |
| 20260508065750 | 2 | 110 | 1.6 | 1.6 | 0.00 | 0.00 | 0.00 | 98 | 1017.9 |
| 20260508065248 | 2 | 88 | 1.6 | 1.6 | 0.00 | 0.00 | 0.00 | 98 | 1018.2 |
| 20260508064746 | 2 | 74 | 1.6 | 1.6 | 0.00 | 0.00 | 0.00 | 98 | 1018.1 |
| 20260508064244 | 2 | 84 | 1.6 | 3.2 | 0.00 | 0.00 | 0.00 | 98 | 1018.2 |
| 20260508063740 | 2 | 92 | 3.2 | 3.2 | 0.00 | 0.00 | 0.00 | 98 | 1018.3 |
| 20260508063239 | 2 | 78 | 0.0 | 3.2 | 0.00 | 0.00 | 0.00 | 98 | 1018.5 |
| 20260508062735 | 2 | 84 | 1.6 | 3.2 | 0.00 | 0.00 | 0.00 | 97 | 1018.1 |
| 20260508062233 | 2 | 100 | 1.6 | 3.2 | 0.00 | 0.00 | 0.00 | 97 | 1018.3 |
| 20260508061730 | 2 | 90 | 3.2 | 3.2 | 0.00 | 0.00 | 0.00 | 97 | 1018.1 |
| 20260508061227 | 2 | 80 | 0.0 | 0.0 | 0.00 | 0.00 | 0.00 | 97 | 1018.2 |
| 20260508060723 | 2 | 89 | 0.0 | 0.0 | 0.00 | 0.00 | 0.00 | 97 | 1018.4 |
| 20260508060221 | 2 | 113 | 0.0 | 0.0 | 0.00 | 0.00 | 0.00 | 97 | 1018.3 |
| 20260508055716 | 2 | 108 | 0.0 | 0.0 | 0.00 | 0.00 | 0.00 | 97 | 1018.5 |
| 20260508055213 | 2 | 96 | 0.0 | 0.0 | 0.00 | 0.00 | 0.00 | 97 | 1018.3 |
| 20260508054710 | 2 | 93 | 0.0 | 0.0 | 0.00 | 0.00 | 0.00 | 97 | 1018.2 |
| 20260508054208 | 3 | 95 | 0.0 | 0.0 | 0.00 | 0.00 | 0.00 | 97 | 1018.2 |
| 20260508053705 | 3 | 97 | 0.0 | 0.0 | 0.00 | 0.00 | 0.00 | 97 | 1018.2 |
| 20260508053202 | 3 | 97 | 0.0 | 0.0 | 0.00 | 0.00 | 0.00 | 97 | 1018.2 |
| 20260508052659 | 3 | 96 | 0.0 | 0.0 | 0.00 | 0.00 | 0.00 | 96 | 1018.1 |
| 20260508052156 | 3 | 96 | 0.0 | 0.0 | 0.00 | 0.00 | 0.00 | 96 | 1018.2 |
| 20260508051652 | 3 | 96 | 0.0 | 0.0 | 0.00 | 0.00 | 0.00 | 96 | 1018.1 |
| 20260508051148 | 3 | 96 | 0.0 | 0.0 | 0.00 | 0.00 | 0.00 | 96 | 1018.2 |
| 20260508050644 | 3 | 96 | 0.0 | 0.0 | 0.00 | 0.00 | 0.00 | 96 | 1018.2 |
| 20260508050142 | 3 | 96 | 0.0 | 0.0 | 0.00 | 0.00 | 0.00 | 96 | 1018.2 |
| 20260508045637 | 3 | 96 | 0.0 | 0.0 | 0.00 | 0.00 | 0.00 | 96 | 1018.0 |
| 20260508045136 | 3 | 117 | 0.0 | 0.0 | 0.00 | 0.00 | 0.00 | 95 | 1018.2 |
| 20260508044632 | 3 | 118 | 0.0 | 0.0 | 0.00 | 0.00 | 0.00 | 95 | 1018.3 |
| 20260508044128 | 3 | 119 | 0.0 | 0.0 | 0.00 | 0.00 | 0.00 | 94 | 1018.2 |
| 20260508043625 | 3 | 122 | 0.0 | 0.0 | 0.00 | 0.00 | 0.00 | 94 | 1018.2 |
| 20260508043123 | 3 | 115 | 0.0 | 0.0 | 0.00 | 0.00 | 0.00 | 94 | 1018.2 |
| 20260508042619 | 3 | 94 | 0.0 | 0.0 | 0.00 | 0.00 | 0.00 | 94 | 1018.1 |
| 20260508042117 | 3 | 92 | 0.0 | 0.0 | 0.00 | 0.00 | 0.00 | 94 | 1018.1 |
| 20260508041613 | 4 | 92 | 0.0 | 0.0 | 0.00 | 0.00 | 0.00 | 93 | 1018.4 |
| 20260508041109 | 4 | 92 | 0.0 | 0.0 | 0.00 | 0.00 | 0.00 | 93 | 1018.3 |
| 20260508040606 | 4 | 92 | 0.0 | 0.0 | 0.00 | 0.00 | 0.00 | 92 | 1018.2 |
| 20260508040104 | 4 | 92 | 0.0 | 0.0 | 0.00 | 0.00 | 0.00 | 92 | 1018.2 |
| 20260508035601 | 4 | 92 | 0.0 | 0.0 | 0.00 | 0.00 | 0.00 | 91 | 1018.1 |
| 20260508035058 | 4 | 92 | 0.0 | 0.0 | 0.00 | 0.00 | 0.00 | 90 | 1018.0 |
| 20260508034554 | 5 | 92 | 0.0 | 0.0 | 0.00 | 0.00 | 0.00 | 90 | 1018.2 |
| 20260508034052 | 5 | 92 | 0.0 | 0.0 | 0.00 | 0.00 | 0.00 | 89 | 1018.3 |
| 20260508033549 | 5 | 92 | 0.0 | 0.0 | 0.00 | 0.00 | 0.00 | 89 | 1018.2 |
| 20260508033048 | 5 | 92 | 0.0 | 0.0 | 0.00 | 0.00 | 0.00 | 89 | 1018.0 |
| 20260508032543 | 5 | 96 | 0.0 | 0.0 | 0.00 | 0.00 | 0.00 | 89 | 1018.2 |
| 20260508032042 | 5 | 96 | 0.0 | 0.0 | 0.00 | 0.00 | 0.00 | 87 | 1018.2 |
| 20260508031538 | 5 | 96 | 0.0 | 0.0 | 0.00 | 0.00 | 0.00 | 86 | 1018.2 |
| 20260508031034 | 5 | 96 | 0.0 | 0.0 | 0.00 | 0.00 | 0.00 | 86 | 1018.2 |
| 20260508030531 | 5 | 96 | 0.0 | 1.6 | 0.00 | 0.00 | 0.00 | 86 | 1018.1 |
| 20260508030029 | 5 | 96 | 0.0 | 0.0 | 0.00 | 0.00 | 0.00 | 86 | 1018.2 |
| 20260508025524 | 5 | 96 | 0.0 | 0.0 | 0.00 | 0.00 | 0.00 | 86 | 1018.1 |
| 20260508025022 | 6 | 96 | 0.0 | 0.0 | 0.00 | 0.00 | 0.00 | 85 | 1018.0 |
| 20260508024518 | 6 | 96 | 0.0 | 0.0 | 0.00 | 0.00 | 0.00 | 84 | 1018.0 |
| 20260508024015 | 6 | 96 | 0.0 | 0.0 | 0.00 | 0.00 | 0.00 | 84 | 1017.7 |
| 20260508023511 | 6 | 96 | 0.0 | 0.0 | 0.00 | 0.00 | 0.00 | 84 | 1017.9 |
| 20260508023009 | 6 | 96 | 0.0 | 0.0 | 0.00 | 0.00 | 0.00 | 84 | 1017.5 |
| 20260508022505 | 6 | 96 | 0.0 | 0.0 | 0.00 | 0.00 | 0.00 | 82 | 1017.5 |
| 20260508022001 | 6 | 96 | 0.0 | 0.0 | 0.00 | 0.00 | 0.00 | 81 | 1017.3 |
| 20260508021458 | 6 | 96 | 0.0 | 0.0 | 0.00 | 0.00 | 0.00 | 80 | 1017.3 |
| 20260508020954 | 7 | 97 | 0.0 | 0.0 | 0.00 | 0.00 | 0.00 | 78 | 1017.2 |
| 20260508020452 | 7 | 99 | 0.0 | 1.6 | 0.00 | 0.00 | 0.00 | 79 | 1017.2 |
| 20260508015948 | 7 | 148 | 0.0 | 0.0 | 0.00 | 0.00 | 0.00 | 79 | 1017.3 |
| 20260508015446 | 7 | 151 | 0.0 | 0.0 | 0.00 | 0.00 | 0.00 | 78 | 1017.1 |
| 20260508014943 | 7 | 107 | 0.0 | 0.0 | 0.00 | 0.00 | 0.00 | 76 | 1017.0 |
| 20260508014440 | 7 | 126 | 0.0 | 0.0 | 0.00 | 0.00 | 0.00 | 74 | 1017.1 |
| 20260508013935 | 7 | 127 | 0.0 | 0.0 | 0.00 | 0.00 | 0.00 | 74 | 1016.9 |
| 20260508013431 | 7 | 128 | 0.0 | 0.0 | 0.00 | 0.00 | 0.00 | 74 | 1016.6 |
| 20260508012929 | 8 | 128 | 0.0 | 0.0 | 0.00 | 0.00 | 0.00 | 75 | 1016.7 |
| 20260508012426 | 8 | 130 | 0.0 | 0.0 | 0.00 | 0.00 | 0.00 | 73 | 1016.7 |
| 20260508011923 | 8 | 93 | 0.0 | 0.0 | 0.00 | 0.00 | 0.00 | 70 | 1016.6 |
| 20260508011421 | 8 | 93 | 1.6 | 1.6 | 0.00 | 0.00 | 0.00 | 66 | 1016.5 |
| 20260508010918 | 9 | 93 | 0.0 | 1.6 | 0.00 | 0.00 | 0.00 | 65 | 1016.5 |
| 20260508010415 | 9 | 93 | 1.6 | 1.6 | 0.00 | 0.00 | 0.00 | 66 | 1016.4 |
| 20260508005912 | 9 | 96 | 1.6 | 1.6 | 0.00 | 0.00 | 0.00 | 70 | 1016.3 |
| 20260508005409 | 10 | 197 | 0.0 | 0.0 | 0.00 | 0.00 | 0.00 | 66 | 1016.4 |
| 20260508004906 | 10 | 209 | 0.0 | 0.0 | 0.00 | 0.00 | 0.00 | 64 | 1016.3 |
| 20260508004402 | 10 | 209 | 0.0 | 0.0 | 0.00 | 0.00 | 0.00 | 63 | 1016.3 |
| 20260508003859 | 11 | 209 | 0.0 | 0.0 | 0.00 | 0.00 | 0.00 | 62 | 1016.3 |
| 20260508003355 | 11 | 209 | 0.0 | 0.0 | 0.00 | 0.00 | 0.00 | 62 | 1016.0 |
| 20260508002853 | 11 | 208 | 0.0 | 0.0 | 0.00 | 0.00 | 0.00 | 59 | 1016.1 |
| 20260508002349 | 12 | 208 | 0.0 | 0.0 | 0.00 | 0.00 | 0.00 | 52 | 1016.0 |
| 20260508001845 | 12 | 208 | 0.0 | 1.6 | 0.00 | 0.00 | 0.00 | 49 | 1016.0 |
| 20260508001341 | 13 | 7 | 0.0 | 3.2 | 0.00 | 0.00 | 0.00 | 46 | 1016.0 |
| 20260508000838 | 14 | 205 | 0.0 | 1.6 | 0.00 | 0.00 | 0.00 | 42 | 1015.9 |
| 20260508000335 | 14 | 237 | 1.6 | 3.2 | 0.00 | 0.00 | 0.00 | 39 | 1015.7 |
| 20260507235831 | 14 | 93 | 0.0 | 9.7 | 0.00 | 0.00 | 0.00 | 38 | 1015.6 |
| 20260507235329 | 15 | 297 | 4.8 | 6.4 | 0.00 | 0.00 | 0.00 | 36 | 1015.6 |
| 20260507234825 | 15 | 215 | 0.0 | 3.2 | 0.00 | 0.00 | 0.00 | 37 | 1015.5 |
| 20260507234322 | 15 | 346 | 1.6 | 4.8 | 0.00 | 0.00 | 0.00 | 34 | 1015.7 |
| 20260507233818 | 15 | 335 | 8.0 | 11.3 | 0.00 | 0.00 | 0.00 | 34 | 1015.5 |
| 20260507233316 | 15 | 230 | 1.6 | 12.9 | 0.00 | 0.00 | 0.00 | 34 | 1015.5 |
| 20260507232814 | 16 | 319 | 1.6 | 6.4 | 0.00 | 0.00 | 0.00 | 36 | 1015.4 |
| 20260507232310 | 16 | 241 | 3.2 | 3.2 | 0.00 | 0.00 | 0.00 | 36 | 1015.2 |
| 20260507231808 | 16 | 294 | 3.2 | 3.2 | 0.00 | 0.00 | 0.00 | 35 | 1015.3 |
| 20260507231304 | 16 | 272 | 3.2 | 6.4 | 0.00 | 0.00 | 0.00 | 35 | 1015.3 |
| 20260507230800 | 16 | 13 | 0.0 | 6.4 | 0.00 | 0.00 | 0.00 | 36 | 1015.3 |
| 20260507230258 | 16 | 280 | 4.8 | 9.7 | 0.00 | 0.00 | 0.00 | 38 | 1015.2 |
| 20260507225758 | 16 | 127 | 9.7 | 12.9 | 0.00 | 0.00 | 0.00 | 36 | 1015.3 |
| 20260507225254 | 17 | 21 | 1.6 | 9.7 | 0.00 | 0.00 | 0.00 | 37 | 1015.2 |
| 20260507224750 | 17 | 42 | 1.6 | 9.7 | 0.00 | 0.00 | 0.00 | 36 | 1015.2 |
| 20260507224247 | 17 | 264 | 6.4 | 11.3 | 0.00 | 0.00 | 0.00 | 36 | 1015.2 |
| 20260507223743 | 17 | 219 | 3.2 | 12.9 | 0.00 | 0.00 | 0.00 | 35 | 1015.1 |
| 20260507223240 | 17 | 263 | 3.2 | 6.4 | 0.00 | 0.00 | 0.00 | 36 | 1015.3 |
| 20260507222737 | 17 | 35 | 3.2 | 12.9 | 0.00 | 0.00 | 0.00 | 37 | 1015.1 |
| 20260507222233 | 17 | 354 | 0.0 | 6.4 | 0.00 | 0.00 | 0.00 | 40 | 1015.0 |
| 20260507221730 | 17 | 275 | 8.0 | 12.9 | 0.00 | 0.00 | 0.00 | 37 | 1015.1 |
| 20260507221226 | 17 | 272 | 8.0 | 14.5 | 0.00 | 0.00 | 0.00 | 36 | 1015.0 |
| 20260507220723 | 17 | 296 | 3.2 | 9.7 | 0.00 | 0.00 | 0.00 | 38 | 1014.9 |
| 20260507220221 | 17 | 271 | 8.0 | 9.7 | 0.00 | 0.00 | 0.00 | 36 | 1015.0 |
| 20260507215717 | 17 | 3 | 4.8 | 6.4 | 0.00 | 0.00 | 0.00 | 37 | 1014.9 |
| 20260507215215 | 17 | 34 | 3.2 | 14.5 | 0.00 | 0.00 | 0.00 | 38 | 1014.9 |
| 20260507214712 | 17 | 246 | 4.8 | 11.3 | 0.00 | 0.00 | 0.00 | 38 | 1014.7 |
| 20260507214209 | 17 | 298 | 6.4 | 9.7 | 0.00 | 0.00 | 0.00 | 38 | 1014.6 |
| 20260507213704 | 17 | 348 | 3.2 | 9.7 | 0.00 | 0.00 | 0.00 | 38 | 1014.6 |
| 20260507213202 | 17 | 277 | 11.3 | 14.5 | 0.00 | 0.00 | 0.00 | 38 | 1014.6 |
| 20260507212657 | 17 | 21 | 4.8 | 6.4 | 0.00 | 0.00 | 0.00 | 39 | 1014.5 |
| 20260507212154 | 16 | 88 | 3.2 | 12.9 | 0.00 | 0.00 | 0.00 | 40 | 1014.7 |
| 20260507211651 | 17 | 269 | 4.8 | 12.9 | 0.00 | 0.00 | 0.00 | 42 | 1014.5 |
| 20260507211146 | 17 | 263 | 6.4 | 9.7 | 0.00 | 0.00 | 0.00 | 39 | 1014.7 |
| 20260507210644 | 18 | 274 | 4.8 | 11.3 | 0.00 | 0.00 | 0.00 | 38 | 1014.5 |
| 20260507210141 | 17 | 288 | 6.4 | 14.5 | 0.00 | 0.00 | 0.00 | 38 | 1014.3 |
| 20260507205637 | 17 | 125 | 1.6 | 11.3 | 0.00 | 0.00 | 0.00 | 38 | 1014.5 |
| 20260507205134 | 17 | 29 | 3.2 | 11.3 | 0.00 | 0.00 | 0.00 | 40 | 1014.5 |
| 20260507204630 | 17 | 305 | 3.2 | 9.7 | 0.00 | 0.00 | 0.00 | 40 | 1014.3 |
| 20260507204128 | 17 | 50 | 3.2 | 9.7 | 0.00 | 0.00 | 0.00 | 37 | 1014.2 |
| 20260507203626 | 17 | 225 | 6.4 | 12.9 | 0.00 | 0.00 | 0.00 | 41 | 1014.4 |
| 20260507203123 | 17 | 104 | 6.4 | 12.9 | 0.00 | 0.00 | 0.00 | 38 | 1014.4 |
| 20260507202619 | 18 | 273 | 1.6 | 11.3 | 0.00 | 0.00 | 0.00 | 41 | 1014.3 |
| 20260507202115 | 17 | 218 | 4.8 | 14.5 | 0.00 | 0.00 | 0.00 | 42 | 1014.1 |
| 20260507201610 | 18 | 22 | 4.8 | 9.7 | 0.00 | 0.00 | 0.00 | 39 | 1014.2 |
| 20260507201108 | 17 | 15 | 4.8 | 9.7 | 0.00 | 0.00 | 0.00 | 45 | 1014.4 |
| 20260507200603 | 16 | 13 | 1.6 | 6.4 | 0.00 | 0.00 | 0.00 | 47 | 1014.3 |
| 20260507200059 | 17 | 296 | 4.8 | 16.1 | 0.00 | 0.00 | 0.00 | 42 | 1014.5 |
| 20260507195557 | 16 | 41 | 1.6 | 9.7 | 0.00 | 0.00 | 0.00 | 45 | 1014.6 |
| 20260507195054 | 16 | 255 | 4.8 | 11.3 | 0.00 | 0.00 | 0.00 | 45 | 1014.6 |
| 20260507194550 | 17 | 31 | 8.0 | 9.7 | 0.00 | 0.00 | 0.00 | 42 | 1014.5 |
| 20260507194046 | 16 | 246 | 3.2 | 9.7 | 0.00 | 0.00 | 0.00 | 43 | 1014.6 |
| 20260507193543 | 17 | 349 | 3.2 | 6.4 | 0.00 | 0.00 | 0.00 | 44 | 1014.5 |
| 20260507193040 | 16 | 277 | 1.6 | 4.8 | 0.00 | 0.00 | 0.00 | 47 | 1014.7 |
| 20260507192536 | 16 | 261 | 6.4 | 11.3 | 0.00 | 0.00 | 0.00 | 44 | 1014.9 |
| 20260507192033 | 17 | 320 | 6.4 | 11.3 | 0.00 | 0.00 | 0.00 | 44 | 1014.6 |
| 20260507191528 | 17 | 70 | 6.4 | 12.9 | 0.00 | 0.00 | 0.00 | 41 | 1014.9 |
| 20260507191026 | 16 | 344 | 8.0 | 12.9 | 0.00 | 0.00 | 0.00 | 43 | 1014.9 |
| 20260507190523 | 16 | 293 | 3.2 | 14.5 | 0.00 | 0.00 | 0.00 | 43 | 1015.1 |
| 20260507190022 | 16 | 49 | 6.4 | 11.3 | 0.00 | 0.00 | 0.00 | 44 | 1014.9 |
| 20260507185520 | 16 | 292 | 8.0 | 11.3 | 0.00 | 0.00 | 0.00 | 44 | 1015.1 |
| 20260507185016 | 17 | 272 | 6.4 | 12.9 | 0.00 | 0.00 | 0.00 | 43 | 1015.0 |
| 20260507184514 | 18 | 248 | 3.2 | 9.7 | 0.00 | 0.00 | 0.00 | 44 | 1015.0 |
| 20260507184012 | 17 | 303 | 4.8 | 6.4 | 0.00 | 0.00 | 0.00 | 48 | 1015.1 |
| 20260507183507 | 17 | 229 | 4.8 | 6.4 | 0.00 | 0.00 | 0.00 | 43 | 1015.2 |
| 20260507183005 | 17 | 208 | 6.4 | 14.5 | 0.00 | 0.00 | 0.00 | 50 | 1015.4 |
| 20260507182501 | 17 | 176 | 0.0 | 11.3 | 0.00 | 0.00 | 0.00 | 43 | 1015.3 |
| 20260507181957 | 17 | 59 | 8.0 | 12.9 | 0.00 | 0.00 | 0.00 | 48 | 1015.2 |
| 20260507181454 | 17 | 2 | 4.8 | 12.9 | 0.00 | 0.00 | 0.00 | 47 | 1015.2 |
| 20260507180950 | 16 | 41 | 1.6 | 3.2 | 0.00 | 0.00 | 0.00 | 48 | 1015.2 |
| 20260507180447 | 15 | 19 | 6.4 | 11.3 | 0.00 | 0.00 | 0.00 | 46 | 1015.4 |
| 20260507175943 | 16 | 19 | 3.2 | 6.4 | 0.00 | 0.00 | 0.00 | 50 | 1015.4 |
| 20260507175440 | 16 | 175 | 14.5 | 16.1 | 0.00 | 0.00 | 0.00 | 46 | 1015.1 |
| 20260507174938 | 16 | 264 | 8.0 | 12.9 | 0.00 | 0.00 | 0.00 | 46 | 1015.2 |
| 20260507174434 | 16 | 290 | 11.3 | 16.1 | 0.00 | 0.00 | 0.00 | 50 | 1015.5 |
| 20260507173932 | 16 | 324 | 4.8 | 12.9 | 0.00 | 0.00 | 0.00 | 51 | 1015.4 |
| 20260507173429 | 15 | 247 | 3.2 | 9.7 | 0.00 | 0.00 | 0.00 | 52 | 1015.6 |
| 20260507172926 | 15 | 12 | 1.6 | 11.3 | 0.00 | 0.00 | 0.00 | 54 | 1015.4 |
| 20260507172422 | 15 | 250 | 4.8 | 9.7 | 0.00 | 0.00 | 0.00 | 51 | 1015.5 |
| 20260507171918 | 16 | 25 | 6.4 | 11.3 | 0.00 | 0.00 | 0.00 | 50 | 1015.4 |
| 20260507171415 | 16 | 359 | 9.7 | 11.3 | 0.00 | 0.00 | 0.00 | 50 | 1015.9 |
| 20260507170912 | 16 | 266 | 3.2 | 9.7 | 0.00 | 0.00 | 0.00 | 52 | 1015.8 |
| 20260507170408 | 16 | 108 | 1.6 | 3.2 | 0.00 | 0.00 | 0.00 | 47 | 1015.7 |
| 20260507165905 | 16 | 287 | 1.6 | 9.7 | 0.00 | 0.00 | 0.00 | 50 | 1015.8 |
| 20260507165401 | 15 | 18 | 4.8 | 6.4 | 0.00 | 0.00 | 0.00 | 56 | 1015.9 |
| 20260507164857 | 15 | 55 | 1.6 | 11.3 | 0.00 | 0.00 | 0.00 | 54 | 1016.0 |
| 20260507164354 | 15 | 24 | 3.2 | 6.4 | 0.00 | 0.00 | 0.00 | 53 | 1015.8 |
| 20260507163851 | 15 | 31 | 3.2 | 4.8 | 0.00 | 0.00 | 0.00 | 55 | 1016.1 |
| 20260507163348 | 15 | 52 | 3.2 | 4.8 | 0.00 | 0.00 | 0.00 | 51 | 1015.9 |
| 20260507162845 | 15 | 68 | 1.6 | 12.9 | 0.00 | 0.00 | 0.00 | 56 | 1016.1 |
| 20260507162340 | 15 | 324 | 3.2 | 6.4 | 0.00 | 0.00 | 0.00 | 52 | 1016.1 |
| 20260507161838 | 16 | 338 | 3.2 | 6.4 | 0.00 | 0.00 | 0.00 | 53 | 1016.2 |
| 20260507161334 | 15 | 204 | 0.0 | 9.7 | 0.00 | 0.00 | 0.00 | 51 | 1016.2 |
| 20260507160831 | 15 | 52 | 3.2 | 11.3 | 0.00 | 0.00 | 0.00 | 55 | 1016.3 |
| 20260507160326 | 15 | 324 | 3.2 | 9.7 | 0.00 | 0.00 | 0.00 | 55 | 1016.3 |
| 20260507155823 | 15 | 53 | 1.6 | 3.2 | 0.00 | 0.00 | 0.00 | 57 | 1016.4 |
| 20260507155319 | 15 | 131 | 3.2 | 4.8 | 0.00 | 0.00 | 0.00 | 53 | 1016.2 |
| 20260507154816 | 15 | 23 | 3.2 | 6.4 | 0.00 | 0.00 | 0.00 | 51 | 1016.2 |
| 20260507154313 | 15 | 284 | 3.2 | 4.8 | 0.00 | 0.00 | 0.00 | 52 | 1016.2 |
| 20260507153810 | 14 | 20 | 4.8 | 9.7 | 0.00 | 0.00 | 0.00 | 52 | 1016.3 |
| 20260507153306 | 15 | 243 | 6.4 | 11.3 | 0.00 | 0.00 | 0.00 | 52 | 1016.2 |
| 20260507152803 | 15 | 256 | 4.8 | 4.8 | 0.00 | 0.00 | 0.00 | 57 | 1016.1 |
| 20260507152259 | 14 | 267 | 1.6 | 11.3 | 0.00 | 0.00 | 0.00 | 57 | 1016.3 |
| 20260507151755 | 15 | 118 | 1.6 | 9.7 | 0.00 | 0.00 | 0.00 | 57 | 1016.3 |